This is the latest recevied weather packets stored in our database for station/object KC9VAF. If no packets are shown the sender has not sent any weather packets the latest 10 day(s).
| Time | Temp. | Humidity | Pressure | Rain* | Wind** | Luminosity | Snow |
|---|---|---|---|---|---|---|---|
| 1778184237 | 9.44° C | 62% | 1012.6 hPa | 0 mm | - | 376 W/m² | - |
| 1778183933 | 9.44° C | 66% | 1012.6 hPa | 0 mm | - | 277 W/m² | - |
| 1778183630 | 8.89° C | 62% | 1012.8 hPa | 0 mm | - | 362 W/m² | - |
| 1778183328 | 9.44° C | 59% | 1012.8 hPa | 0 mm | - | 201 W/m² | - |
| 1778183024 | 8.89° C | 55% | 1012.7 hPa | 0 mm | - | 84 W/m² | - |
| 1778182721 | 8.89° C | 55% | 1012.8 hPa | 0 mm | - | 94 W/m² | - |
| 1778182418 | 8.89° C | 57% | 1012.7 hPa | 0 mm | - | 84 W/m² | - |
| 1778182114 | 8.89° C | 58% | 1012.4 hPa | 0 mm | - | 85 W/m² | - |
| 1778181811 | 9.44° C | 60% | 1012.2 hPa | 0 mm | - | 155 W/m² | - |
| 1778181507 | 9.44° C | 59% | 1012.2 hPa | 0 mm | - | 259 W/m² | - |
| 1778181203 | 8.89° C | 59% | 1012 hPa | 0 mm | - | 330 W/m² | - |
| 1778180900 | 9.44° C | 58% | 1012.2 hPa | 0 mm | - | 396 W/m² | - |
| 1778180598 | 10° C | 57% | 1012.4 hPa | 0 mm | - | 260 W/m² | - |
| 1778180297 | 10° C | 61% | 1012.2 hPa | 0 mm | - | 742 W/m² | - |
| 1778179994 | 9.44° C | 58% | 1012.6 hPa | 0 mm | - | 578 W/m² | - |
| 1778179691 | 8.89° C | 56% | 1012.7 hPa | 0 mm | - | 262 W/m² | - |
| 1778179389 | 8.89° C | 57% | 1012.7 hPa | 0 mm | - | 212 W/m² | - |
| 1778179085 | 8.89° C | 55% | 1013 hPa | 0 mm | - | 238 W/m² | - |
| 1778178782 | 9.44° C | 55% | 1012.7 hPa | 0 mm | - | 342 W/m² | - |
| 1778178480 | 8.89° C | 56% | 1012.9 hPa | 0 mm | - | 303 W/m² | - |
| 1778178174 | 8.89° C | 54% | 1013 hPa | 0 mm | - | 286 W/m² | - |
| 1778177871 | 8.89° C | 55% | 1013.2 hPa | 0 mm | - | 268 W/m² | - |
| 1778177568 | 9.44° C | 56% | 1013.1 hPa | 0 mm | - | 267 W/m² | - |
| 1778177264 | 9.44° C | 54% | 1013.2 hPa | 0 mm | - | 180 W/m² | - |
| 1778176961 | 10° C | 55% | 1013.1 hPa | 0 mm | - | 200 W/m² | - |
* Rain latest hour (hover to see other rain measurements)
** Current wind speed in m/s (hover to see current wind gust speed)